CMP202 MSLP-MMMX

Flight info

Callsign CMP202
Flight time N/A
Altitude 36000
Route OLISU4A OLISU DCT KAPAN DCT XOSVO UT157 LARLO LARLO3B
Aircraft B738/M-SDE2E3FGHIRWXY/LB1

Departure

Time 2026-05-04 01:23
Airport El Salvador International Airport Saint Óscar Arnulfo Romero y Galdámez (MSLP)

Arrival

Time N/A
Airport Mexico City Benito Juárez International Airport (MMMX)
Time Latitude Longitude Altitude Speed Heading
2026-05-04 00:42 13.44372 -89.05802 91 ft 0 kts 341°
2026-05-04 01:12 13.44365 -89.05800 91 ft 4 kts 336°
2026-05-04 01:12 13.44343 -89.05785 92 ft 4 kts 308°
2026-05-04 01:12 13.44330 -89.05761 91 ft 4 kts 287°
2026-05-04 01:12 13.44325 -89.05735 93 ft 4 kts 272°
2026-05-04 01:13 13.44326 -89.05707 92 ft 4 kts 257°
2026-05-04 01:13 13.44329 -89.05695 92 ft 1 kts 250°
2026-05-04 01:15 13.44325 -89.05707 91 ft 3 kts 250°
2026-05-04 01:15 13.44311 -89.05747 91 ft 9 kts 250°
2026-05-04 01:16 13.44281 -89.05829 92 ft 16 kts 250°
2026-05-04 01:16 13.44236 -89.05954 90 ft 22 kts 249°
2026-05-04 01:16 13.44178 -89.06112 90 ft 25 kts 250°
2026-05-04 01:16 13.44120 -89.06277 88 ft 24 kts 250°
2026-05-04 01:17 13.44065 -89.06432 86 ft 23 kts 251°
2026-05-04 01:17 13.44014 -89.06580 82 ft 22 kts 250°
2026-05-04 01:17 13.43962 -89.06726 80 ft 21 kts 249°
2026-05-04 01:17 13.43856 -89.06823 79 ft 14 kts 212°
2026-05-04 01:18 13.43816 -89.06884 75 ft 0 kts 248°
2026-05-04 01:20 13.43815 -89.06886 76 ft 2 kts 248°
2026-05-04 01:21 13.43802 -89.06918 73 ft 9 kts 248°
2026-05-04 01:21 13.43765 -89.06989 72 ft 13 kts 218°
2026-05-04 01:21 13.43684 -89.06986 76 ft 12 kts 161°
2026-05-04 01:21 13.43617 -89.06939 70 ft 12 kts 116°
2026-05-04 01:22 13.43618 -89.06904 76 ft 0 kts 72°
2026-05-04 01:22 13.43675 -89.06742 81 ft 61 kts 69°
2026-05-04 01:22 13.43890 -89.06148 89 ft 112 kts 70°
2026-05-04 01:22 13.44207 -89.05267 95 ft 149 kts 69°
2026-05-04 01:23 13.44599 -89.04190 235 ft 168 kts 69°
2026-05-04 01:23 13.44998 -89.03056 676 ft 170 kts 69°
2026-05-04 01:23 13.45392 -89.01870 954 ft 183 kts 69°
2026-05-04 01:23 13.45823 -89.00611 1251 ft 196 kts 71°
2026-05-04 01:24 13.46278 -88.99259 1720 ft 202 kts 70°
2026-05-04 01:24 13.47001 -88.97994 2059 ft 217 kts 37°
2026-05-04 01:24 13.48429 -88.97482 2256 ft 229 kts 355°
2026-05-04 01:24 13.49931 -88.98116 2431 ft 249 kts 317°
2026-05-04 01:25 13.50806 -88.99695 2734 ft 264 kts 281°
2026-05-04 01:25 13.51166 -89.01553 3342 ft 267 kts 291°
2026-05-04 01:25 13.52090 -89.03209 3997 ft 268 kts 305°
2026-05-04 01:25 13.53089 -89.04808 4636 ft 271 kts 303°
2026-05-04 01:26 13.54061 -89.06470 5328 ft 273 kts 303°
2026-05-04 01:26 13.55034 -89.08162 5892 ft 277 kts 303°
2026-05-04 01:26 13.56018 -89.09880 6512 ft 281 kts 303°
2026-05-04 01:26 13.57014 -89.11623 7091 ft 285 kts 303°
2026-05-04 01:27 13.58022 -89.13386 7698 ft 288 kts 303°
2026-05-04 01:27 13.59040 -89.15170 8308 ft 291 kts 303°
2026-05-04 01:27 13.60075 -89.16983 8904 ft 296 kts 303°
2026-05-04 01:27 13.61108 -89.18793 9531 ft 300 kts 303°
2026-05-04 01:28 13.62169 -89.20652 10163 ft 303 kts 303°
2026-05-04 01:28 13.63261 -89.22563 10467 ft 321 kts 303°
2026-05-04 01:28 13.64430 -89.24607 10664 ft 341 kts 302°
2026-05-04 01:28 13.65666 -89.26772 10784 ft 360 kts 302°
2026-05-04 01:29 13.66961 -89.29044 10976 ft 375 kts 302°
2026-05-04 01:29 13.68296 -89.31388 11398 ft 382 kts 302°
2026-05-04 01:29 13.69640 -89.33752 11945 ft 384 kts 302°
2026-05-04 01:29 13.70537 -89.35328 12336 ft 386 kts 302°
2026-05-04 01:30 13.71896 -89.37717 12897 ft 389 kts 302°
2026-05-04 01:30 13.73716 -89.40916 13631 ft 394 kts 302°
2026-05-04 01:30 13.75105 -89.43356 14149 ft 397 kts 302°
2026-05-04 01:30 13.76503 -89.45815 14684 ft 399 kts 302°
2026-05-04 01:31 13.77908 -89.48285 15227 ft 402 kts 302°
2026-05-04 01:31 13.79323 -89.50774 15780 ft 404 kts 302°
2026-05-04 01:31 13.80266 -89.52434 16119 ft 406 kts 302°
2026-05-04 01:31 13.81696 -89.54951 16641 ft 409 kts 302°
2026-05-04 01:32 13.83137 -89.57488 17150 ft 412 kts 302°
2026-05-04 01:32 13.85066 -89.60875 17822 ft 416 kts 303°
2026-05-04 01:32 13.86136 -89.62560 18148 ft 417 kts 308°
2026-05-04 01:32 13.87948 -89.64897 18571 ft 419 kts 312°
2026-05-04 01:33 13.90441 -89.67953 19135 ft 422 kts 311°
2026-05-04 01:33 13.91687 -89.69495 19420 ft 424 kts 311°
2026-05-04 01:33 13.93561 -89.71842 19870 ft 426 kts 311°
2026-05-04 01:33 13.95437 -89.74219 20272 ft 428 kts 310°
2026-05-04 01:34 13.97311 -89.76609 20667 ft 430 kts 310°
2026-05-04 01:34 13.99192 -89.79016 21061 ft 432 kts 310°
2026-05-04 01:34 14.01083 -89.81434 21445 ft 435 kts 310°
2026-05-04 01:34 14.02983 -89.83863 21820 ft 437 kts 310°
2026-05-04 01:35 14.04880 -89.86315 22194 ft 439 kts 308°
2026-05-04 01:35 14.06528 -89.88973 22547 ft 444 kts 299°
2026-05-04 01:35 14.07920 -89.91822 22950 ft 445 kts 298°
2026-05-04 01:35 14.09277 -89.94648 23293 ft 448 kts 298°
2026-05-04 01:36 14.10667 -89.97531 23610 ft 450 kts 298°
2026-05-04 01:36 14.12074 -90.00420 23907 ft 452 kts 298°
2026-05-04 01:36 14.13496 -90.03315 24189 ft 453 kts 298°
2026-05-04 01:36 14.14928 -90.06211 24459 ft 455 kts 298°
2026-05-04 01:37 14.16370 -90.09115 24726 ft 456 kts 298°
2026-05-04 01:37 14.17819 -90.12029 24984 ft 458 kts 298°
2026-05-04 01:37 14.19277 -90.14958 25233 ft 459 kts 298°
2026-05-04 01:37 14.20715 -90.17848 25490 ft 461 kts 298°
2026-05-04 01:38 14.22181 -90.20795 25785 ft 462 kts 298°
2026-05-04 01:38 14.23646 -90.23740 26143 ft 461 kts 298°
2026-05-04 01:38 14.25106 -90.26677 26439 ft 461 kts 298°
2026-05-04 01:38 14.26574 -90.29632 26656 ft 464 kts 298°
2026-05-04 01:39 14.28048 -90.32598 26871 ft 466 kts 298°
2026-05-04 01:39 14.29526 -90.35579 27097 ft 468 kts 298°
2026-05-04 01:39 14.30988 -90.38532 27320 ft 470 kts 298°
2026-05-04 01:39 14.32472 -90.41532 27563 ft 471 kts 298°
2026-05-04 01:40 14.33963 -90.44545 27786 ft 472 kts 298°
2026-05-04 01:40 14.35458 -90.47566 27996 ft 474 kts 298°
2026-05-04 01:40 14.36956 -90.50593 28251 ft 475 kts 298°
2026-05-04 01:40 14.38460 -90.53631 28448 ft 476 kts 298°
2026-05-04 01:41 14.39967 -90.56678 28642 ft 478 kts 298°
2026-05-04 01:41 14.41478 -90.59733 28841 ft 479 kts 298°
2026-05-04 01:41 14.42995 -90.62802 29050 ft 480 kts 298°
2026-05-04 01:41 14.44491 -90.65830 29266 ft 481 kts 297°
2026-05-04 01:42 14.46008 -90.68901 29567 ft 479 kts 297°
2026-05-04 01:42 14.47514 -90.71952 29922 ft 476 kts 298°
2026-05-04 01:42 14.49015 -90.74993 30248 ft 475 kts 297°
2026-05-04 01:42 14.50511 -90.78027 30495 ft 475 kts 297°
2026-05-04 01:43 14.52014 -90.81073 30615 ft 477 kts 297°
2026-05-04 01:43 14.53519 -90.84125 30806 ft 477 kts 297°
2026-05-04 01:43 14.55020 -90.87171 31150 ft 473 kts 297°
2026-05-04 01:43 14.56485 -90.90146 31513 ft 470 kts 296°
2026-05-04 01:44 14.57962 -90.93147 31776 ft 469 kts 296°
2026-05-04 01:44 14.59441 -90.96156 31962 ft 471 kts 296°
2026-05-04 01:44 14.60925 -90.99176 32096 ft 473 kts 296°
2026-05-04 01:44 14.62416 -91.02206 32302 ft 474 kts 296°
2026-05-04 01:45 14.63908 -91.05238 32580 ft 473 kts 296°
2026-05-04 01:45 14.65394 -91.08259 32926 ft 471 kts 296°
2026-05-04 01:45 14.68345 -91.14268 33542 ft 468 kts 296°
2026-05-04 01:46 14.69817 -91.17267 33803 ft 468 kts 296°
2026-05-04 01:46 14.71268 -91.20226 34056 ft 468 kts 296°
2026-05-04 01:46 14.72738 -91.23225 34309 ft 467 kts 296°
2026-05-04 01:46 14.74204 -91.26215 34574 ft 466 kts 296°
2026-05-04 01:47 14.75666 -91.29199 34827 ft 465 kts 296°
2026-05-04 01:47 14.77126 -91.32181 35057 ft 465 kts 296°
2026-05-04 01:47 14.78583 -91.35156 35297 ft 464 kts 296°
2026-05-04 01:47 14.80040 -91.38133 35519 ft 463 kts 296°
2026-05-04 01:48 14.81491 -91.41100 35763 ft 462 kts 296°
2026-05-04 01:48 14.82922 -91.44025 35982 ft 462 kts 296°
2026-05-04 01:48 14.84371 -91.46990 36211 ft 462 kts 296°
2026-05-04 01:48 14.85815 -91.49946 36454 ft 461 kts 296°
2026-05-04 01:49 14.87258 -91.52899 36648 ft 460 kts 296°
2026-05-04 01:49 14.88701 -91.55855 36838 ft 460 kts 295°
2026-05-04 01:49 14.90143 -91.58810 37023 ft 461 kts 295°
2026-05-04 01:49 14.91584 -91.61763 37257 ft 460 kts 295°
2026-05-04 01:50 14.94480 -91.67703 37324 ft 464 kts 296°
2026-05-04 01:50 14.97356 -91.73604 37281 ft 460 kts 295°
2026-05-04 01:51 15.00219 -91.79485 37276 ft 456 kts 295°
2026-05-04 01:51 15.03063 -91.85333 37239 ft 454 kts 295°
2026-05-04 01:52 15.05892 -91.91157 37229 ft 453 kts 295°
2026-05-04 01:52 15.08718 -91.96978 37277 ft 453 kts 296°
2026-05-04 01:53 15.11530 -92.02771 37231 ft 454 kts 296°
2026-05-04 01:53 15.14370 -92.08629 37228 ft 456 kts 296°
2026-05-04 01:54 15.17219 -92.14510 37173 ft 458 kts 296°
2026-05-04 01:54 15.20084 -92.20427 37168 ft 461 kts 296°
2026-05-04 01:55 15.22939 -92.26331 37213 ft 462 kts 296°
2026-05-04 01:55 15.25823 -92.32297 37145 ft 464 kts 296°
2026-05-04 01:56 15.28712 -92.38280 37165 ft 464 kts 296°
2026-05-04 01:56 15.31597 -92.44260 37150 ft 464 kts 296°
2026-05-04 01:57 15.34456 -92.50188 37100 ft 462 kts 296°
2026-05-04 01:57 15.37321 -92.56138 37129 ft 461 kts 296°
2026-05-04 01:58 15.40179 -92.62075 37084 ft 460 kts 296°
2026-05-04 01:58 15.43026 -92.67995 37085 ft 458 kts 296°
2026-05-04 01:59 15.45843 -92.73856 37091 ft 457 kts 296°
2026-05-04 01:59 15.48669 -92.79741 37071 ft 456 kts 296°
2026-05-04 02:00 15.51489 -92.85620 37076 ft 455 kts 296°
2026-05-04 02:00 15.54306 -92.91497 37044 ft 455 kts 296°
2026-05-04 02:01 15.57101 -92.97333 37044 ft 455 kts 296°
2026-05-04 02:01 15.59913 -93.03209 37044 ft 455 kts 296°
2026-05-04 02:02 15.62726 -93.09093 37065 ft 456 kts 295°
2026-05-04 02:02 15.65544 -93.14992 37049 ft 457 kts 295°
2026-05-04 02:03 15.68364 -93.20901 37037 ft 457 kts 295°
2026-05-04 02:03 15.71162 -93.26765 37038 ft 456 kts 295°
2026-05-04 02:04 15.73976 -93.32671 37040 ft 456 kts 295°
2026-05-04 02:04 15.76785 -93.38571 37047 ft 456 kts 295°
2026-05-04 02:05 15.79592 -93.44470 37042 ft 456 kts 295°
2026-05-04 02:05 15.82375 -93.50325 37044 ft 455 kts 295°
2026-05-04 02:06 15.85173 -93.56217 37035 ft 455 kts 295°
2026-05-04 02:06 15.87969 -93.62107 37039 ft 454 kts 295°
2026-05-04 02:07 15.90759 -93.67992 37048 ft 454 kts 295°
2026-05-04 02:07 15.93550 -93.73884 37053 ft 454 kts 295°
2026-05-04 02:08 15.96321 -93.79738 37054 ft 454 kts 295°
2026-05-04 02:08 15.99103 -93.85621 37041 ft 454 kts 295°
2026-05-04 02:09 16.01886 -93.91510 37045 ft 454 kts 295°
2026-05-04 02:09 16.04665 -93.97396 37046 ft 453 kts 295°
2026-05-04 02:10 16.07442 -94.03283 37049 ft 453 kts 295°
2026-05-04 02:10 16.10198 -94.09131 37050 ft 453 kts 295°
2026-05-04 02:11 16.12971 -94.15019 37044 ft 453 kts 295°
2026-05-04 02:11 16.15742 -94.20909 37043 ft 453 kts 295°
2026-05-04 02:12 16.18496 -94.26767 37060 ft 454 kts 295°
2026-05-04 02:12 16.21268 -94.32669 37053 ft 454 kts 295°
2026-05-04 02:13 16.24041 -94.38577 37053 ft 455 kts 295°
2026-05-04 02:13 16.26815 -94.44493 37053 ft 455 kts 295°
2026-05-04 02:14 16.29589 -94.50416 37052 ft 456 kts 295°
2026-05-04 02:14 16.32346 -94.56304 37076 ft 455 kts 295°
2026-05-04 02:15 16.35119 -94.62236 37065 ft 455 kts 294°
2026-05-04 02:15 16.37888 -94.68162 37071 ft 455 kts 294°
2026-05-04 02:16 16.40653 -94.74083 37071 ft 454 kts 294°
2026-05-04 02:16 16.43411 -94.79995 37075 ft 454 kts 294°
2026-05-04 02:17 16.46148 -94.85870 37096 ft 453 kts 294°
2026-05-04 02:17 16.48899 -94.91780 37099 ft 453 kts 294°
2026-05-04 02:18 16.51644 -94.97682 37103 ft 453 kts 294°
2026-05-04 02:18 16.54389 -95.03588 37097 ft 452 kts 294°
2026-05-04 02:19 16.57106 -95.09442 37119 ft 452 kts 294°
2026-05-04 02:19 16.59838 -95.15339 37117 ft 451 kts 293°
2026-05-04 02:20 16.62560 -95.21229 37113 ft 450 kts 293°
2026-05-04 02:20 16.65290 -95.27097 37123 ft 450 kts 294°
2026-05-04 02:21 16.67997 -95.32928 37120 ft 449 kts 294°
2026-05-04 02:21 16.70707 -95.38790 37141 ft 448 kts 292°
2026-05-04 02:22 16.73405 -95.44640 37147 ft 447 kts 292°
2026-05-04 02:22 16.76094 -95.50474 37147 ft 446 kts 292°
2026-05-04 02:23 16.78775 -95.56289 37155 ft 444 kts 292°
2026-05-04 02:23 16.81431 -95.62050 37154 ft 442 kts 292°
2026-05-04 02:24 16.84093 -95.67831 37179 ft 442 kts 292°
2026-05-04 02:24 16.86763 -95.73630 37162 ft 445 kts 294°
2026-05-04 02:25 16.89457 -95.79512 37188 ft 453 kts 294°
2026-05-04 02:25 16.92181 -95.85452 37180 ft 458 kts 294°
2026-05-04 02:26 16.94936 -95.91455 37182 ft 459 kts 294°
2026-05-04 02:26 16.97694 -95.97471 37183 ft 458 kts 294°
2026-05-04 02:27 17.00417 -96.03420 37179 ft 449 kts 294°
2026-05-04 02:27 17.03086 -96.09258 37195 ft 448 kts 294°
2026-05-04 02:28 17.05768 -96.15129 37194 ft 447 kts 294°
2026-05-04 02:28 17.08445 -96.20994 37190 ft 447 kts 294°
2026-05-04 02:29 17.11122 -96.26867 37205 ft 448 kts 294°
2026-05-04 02:29 17.13784 -96.32710 37207 ft 449 kts 294°
2026-05-04 02:30 17.16490 -96.38601 37206 ft 450 kts 296°
2026-05-04 02:30 17.19515 -96.44348 37198 ft 452 kts 298°
2026-05-04 02:31 17.22647 -96.50050 37215 ft 453 kts 298°
2026-05-04 02:31 17.25743 -96.55743 37209 ft 453 kts 298°
2026-05-04 02:32 17.28838 -96.61497 37228 ft 454 kts 298°
2026-05-04 02:32 17.31930 -96.67267 37229 ft 454 kts 298°
2026-05-04 02:33 17.35018 -96.73035 37193 ft 454 kts 297°
2026-05-04 02:33 17.36926 -96.76602 37208 ft 454 kts 297°
2026-05-04 02:34 17.39989 -96.82329 37215 ft 454 kts 298°
2026-05-04 02:34 17.41019 -96.84257 37204 ft 454 kts 297°
2026-05-04 02:35 17.43436 -96.88781 37210 ft 453 kts 298°
2026-05-04 02:36 17.46485 -96.94492 37198 ft 452 kts 298°
2026-05-04 02:36 17.49551 -97.00241 37204 ft 452 kts 297°
2026-05-04 02:37 17.52616 -97.05993 37209 ft 452 kts 298°
2026-05-04 02:37 17.55677 -97.11745 37220 ft 451 kts 297°
2026-05-04 02:38 17.58739 -97.17487 37207 ft 451 kts 299°
2026-05-04 02:38 17.62662 -97.22554 37222 ft 454 kts 315°
2026-05-04 02:39 17.67267 -97.27075 37215 ft 454 kts 315°
2026-05-04 02:39 17.71840 -97.31635 37208 ft 454 kts 314°
2026-05-04 02:40 17.76398 -97.36227 37201 ft 455 kts 314°
2026-05-04 02:40 17.80925 -97.40804 37204 ft 455 kts 314°
2026-05-04 02:41 17.85486 -97.45419 37210 ft 455 kts 314°
2026-05-04 02:41 17.90048 -97.50035 37208 ft 456 kts 314°
2026-05-04 02:42 17.94622 -97.54667 37199 ft 457 kts 314°
2026-05-04 02:42 17.99166 -97.59271 37196 ft 457 kts 314°
2026-05-04 02:43 18.03742 -97.63911 37236 ft 457 kts 314°
2026-05-04 02:43 18.08322 -97.68560 37239 ft 458 kts 314°
2026-05-04 02:44 18.12898 -97.73208 37234 ft 458 kts 314°
2026-05-04 02:44 18.17442 -97.77828 37208 ft 457 kts 314°
2026-05-04 02:45 18.22014 -97.82479 37206 ft 457 kts 314°
2026-05-04 02:45 18.26580 -97.87125 37215 ft 456 kts 314°
2026-05-04 02:46 18.31134 -97.91756 37172 ft 454 kts 314°
2026-05-04 02:46 18.33417 -97.94080 36649 ft 461 kts 314°
2026-05-04 02:46 18.35693 -97.96398 36063 ft 459 kts 314°
2026-05-04 02:47 18.37980 -97.98728 35495 ft 457 kts 314°
2026-05-04 02:47 18.40257 -98.01049 34894 ft 456 kts 315°
2026-05-04 02:47 18.42540 -98.03377 34254 ft 457 kts 315°
2026-05-04 02:47 18.44829 -98.05712 33439 ft 460 kts 315°
2026-05-04 02:48 18.47123 -98.08054 32715 ft 459 kts 315°
2026-05-04 02:48 18.47650 -98.08591 32547 ft 459 kts 315°
2026-05-04 02:48 18.48942 -98.09910 32125 ft 460 kts 315°
2026-05-04 02:48 18.51212 -98.12229 31391 ft 461 kts 316°
2026-05-04 02:49 18.53520 -98.14588 30655 ft 462 kts 316°
2026-05-04 02:49 18.55821 -98.16940 30107 ft 459 kts 316°
2026-05-04 02:49 18.58103 -98.19273 29426 ft 456 kts 316°
2026-05-04 02:49 18.60364 -98.21587 28839 ft 450 kts 316°
2026-05-04 02:50 18.62599 -98.23875 28267 ft 445 kts 316°
2026-05-04 02:50 18.64811 -98.26139 27726 ft 440 kts 316°
2026-05-04 02:50 18.66996 -98.28377 27200 ft 436 kts 316°
2026-05-04 02:50 18.69162 -98.30596 26677 ft 432 kts 316°
2026-05-04 02:51 18.71089 -98.32951 26101 ft 431 kts 302°
2026-05-04 02:51 18.72248 -98.35862 25583 ft 432 kts 287°
2026-05-04 02:51 18.72896 -98.38956 25001 ft 433 kts 282°
2026-05-04 02:51 18.73439 -98.42080 24421 ft 433 kts 282°
2026-05-04 02:52 18.73966 -98.45209 23846 ft 432 kts 282°
2026-05-04 02:52 18.74499 -98.48324 23209 ft 431 kts 282°
2026-05-04 02:52 18.75043 -98.51427 22588 ft 429 kts 282°
2026-05-04 02:52 18.75594 -98.54506 22014 ft 425 kts 282°
2026-05-04 02:53 18.76147 -98.57561 21452 ft 422 kts 282°
2026-05-04 02:53 18.76698 -98.60589 20896 ft 419 kts 282°
2026-05-04 02:53 18.77238 -98.63554 20368 ft 416 kts 282°
2026-05-04 02:53 18.77781 -98.66543 19796 ft 413 kts 282°
2026-05-04 02:54 18.78321 -98.69514 19284 ft 411 kts 282°
2026-05-04 02:54 18.78858 -98.72473 18740 ft 410 kts 282°
2026-05-04 02:54 18.79392 -98.75419 18176 ft 408 kts 282°
2026-05-04 02:54 18.79922 -98.78348 17585 ft 405 kts 282°
2026-05-04 02:55 18.80990 -98.84054 17057 ft 383 kts 283°
2026-05-04 02:55 18.81568 -98.86740 17018 ft 368 kts 283°
2026-05-04 02:55 18.82134 -98.89319 17007 ft 353 kts 284°
2026-05-04 02:56 18.82665 -98.91760 17034 ft 338 kts 284°
2026-05-04 02:56 18.83173 -98.94132 17023 ft 325 kts 283°
2026-05-04 02:56 18.83658 -98.96415 17025 ft 312 kts 283°
2026-05-04 02:56 18.84124 -98.98620 17027 ft 303 kts 283°
2026-05-04 02:57 18.84566 -99.00772 17037 ft 298 kts 282°
2026-05-04 02:57 18.84944 -99.02918 17043 ft 297 kts 281°
2026-05-04 02:57 18.85308 -99.05067 17052 ft 299 kts 281°
2026-05-04 02:57 18.85681 -99.07248 17053 ft 305 kts 281°
2026-05-04 02:58 18.86063 -99.09452 17045 ft 305 kts 281°
2026-05-04 02:58 18.86442 -99.11629 17038 ft 306 kts 282°
2026-05-04 02:58 18.86828 -99.13835 17039 ft 306 kts 282°
2026-05-04 02:58 18.87529 -99.15925 17010 ft 302 kts 307°
2026-05-04 02:59 18.88828 -99.17644 17045 ft 300 kts 309°
2026-05-04 02:59 18.90081 -99.19417 17088 ft 301 kts 307°
2026-05-04 02:59 18.91314 -99.21209 17073 ft 302 kts 307°
2026-05-04 02:59 18.92570 -99.22996 17073 ft 302 kts 312°
2026-05-04 03:00 18.94222 -99.24308 17087 ft 298 kts 340°
2026-05-04 03:00 18.96248 -99.24658 17050 ft 298 kts
2026-05-04 03:00 18.98262 -99.24120 16527 ft 307 kts 28°
2026-05-04 03:00 19.00004 -99.22834 16176 ft 308 kts 45°
2026-05-04 03:01 19.01394 -99.21155 16004 ft 302 kts 49°
2026-05-04 03:01 19.02745 -99.19473 15815 ft 297 kts 49°
2026-05-04 03:01 19.04079 -99.17822 15610 ft 293 kts 49°
2026-05-04 03:01 19.05401 -99.16199 15414 ft 290 kts 49°
2026-05-04 03:02 19.06717 -99.14592 15220 ft 288 kts 48°
2026-05-04 03:02 19.08030 -99.12997 15032 ft 287 kts 48°
2026-05-04 03:02 19.09341 -99.11409 14867 ft 287 kts 48°
2026-05-04 03:02 19.10639 -99.09838 14698 ft 288 kts 48°
2026-05-04 03:03 19.11964 -99.08236 14532 ft 291 kts 48°
2026-05-04 03:03 19.13298 -99.06622 14334 ft 290 kts 47°
2026-05-04 03:03 19.14619 -99.05023 14160 ft 287 kts 47°
2026-05-04 03:03 19.16082 -99.03630 13938 ft 282 kts 25°
2026-05-04 03:04 19.17932 -99.03166 13780 ft 272 kts 356°
2026-05-04 03:04 19.19764 -99.03579 13465 ft 270 kts 335°
2026-05-04 03:04 19.21320 -99.04633 13209 ft 263 kts 315°
2026-05-04 03:04 19.22629 -99.05954 12910 ft 258 kts 315°
2026-05-04 03:05 19.23905 -99.07236 12759 ft 245 kts 315°
2026-05-04 03:05 19.25007 -99.08503 12673 ft 229 kts 306°
2026-05-04 03:05 19.25921 -99.09808 12546 ft 214 kts 306°
2026-05-04 03:05 19.26797 -99.11074 12076 ft 219 kts 306°
2026-05-04 03:06 19.27706 -99.12365 11662 ft 219 kts 306°
2026-05-04 03:06 19.28611 -99.13636 11356 ft 213 kts 306°
2026-05-04 03:06 19.29493 -99.14865 11082 ft 206 kts 306°
2026-05-04 03:06 19.30346 -99.16050 10837 ft 199 kts 306°
2026-05-04 03:07 19.31177 -99.17204 10629 ft 196 kts 306°
2026-05-04 03:07 19.32013 -99.18314 10407 ft 195 kts 313°
2026-05-04 03:07 19.33115 -99.19127 10150 ft 192 kts 338°
2026-05-04 03:07 19.34410 -99.19388 9910 ft 190 kts
2026-05-04 03:08 19.35690 -99.19195 9735 ft 184 kts 18°
2026-05-04 03:08 19.36804 -99.18562 9513 ft 180 kts 38°
2026-05-04 03:08 19.37593 -99.17576 9416 ft 174 kts 57°
2026-05-04 03:08 19.38258 -99.16500 9256 ft 174 kts 57°
2026-05-04 03:09 19.38881 -99.15418 9099 ft 171 kts 58°
2026-05-04 03:09 19.39471 -99.14363 8929 ft 166 kts 58°
2026-05-04 03:09 19.40056 -99.13316 8703 ft 165 kts 58°
2026-05-04 03:09 19.40640 -99.12273 8416 ft 166 kts 58°
2026-05-04 03:10 19.41235 -99.11210 8116 ft 170 kts 58°
2026-05-04 03:10 19.41849 -99.10114 7820 ft 174 kts 58°
2026-05-04 03:10 19.42456 -99.09053 7477 ft 165 kts 59°
2026-05-04 03:10 19.43023 -99.08027 7323 ft 157 kts 60°
2026-05-04 03:11 19.43493 -99.07175 7301 ft 103 kts 60°